TimePDT,TemperatureF,Dew PointF,Humidity,Sea Level PressureIn,VisibilityMPH,Wind Direction,Wind SpeedMPH,Gust SpeedMPH,PrecipitationIn,Events,Conditions,WindDirDegrees,DateUTC
12:00 AM,68.0,63.9,87,29.98,-9999.0,SSE,2.3,-,N/A,,Unknown,150,2013-06-30 07:00:00
1:00 AM,66.7,63.9,90,29.99,-9999.0,East,4.6,-,N/A,,Unknown,100,2013-06-30 08:00:00
2:00 AM,66.4,63.9,92,29.98,-9999.0,ESE,10.4,-,N/A,,Unknown,110,2013-06-30 09:00:00
3:00 AM,65.8,63.5,92,29.98,-9999.0,ESE,9.2,-,N/A,,Unknown,120,2013-06-30 10:00:00
4:00 AM,64.9,62.4,92,29.98,-9999.0,ESE,8.1,-,N/A,,Unknown,110,2013-06-30 11:00:00
5:00 AM,65,62,87,29.98,,East,11.5,,,,,80,2013-06-30 12:00:00
5:00 AM,64.6,62.1,92,29.98,-9999.0,East,11.5,-,N/A,,Unknown,80,2013-06-30 12:00:00
6:00 AM,65.5,62.8,91,29.99,-9999.0,SE,2.3,-,N/A,,Unknown,130,2013-06-30 13:00:00
7:00 AM,65.5,62.4,90,29.99,-9999.0,East,9.2,-,N/A,,Unknown,80,2013-06-30 14:00:00
8:00 AM,68.4,63.1,83,30.00,-9999.0,ESE,4.6,-,N/A,,Unknown,120,2013-06-30 15:00:00
9:00 AM,67.6,62.2,83,29.99,-9999.0,East,6.9,-,N/A,,Unknown,100,2013-06-30 16:00:00
10:00 AM,67.3,62.2,84,29.99,-9999.0,ENE,8.1,-,N/A,,Unknown,70,2013-06-30 17:00:00
11:00 AM,69,63,76,29.97,,ENE,4.6,,,,,70,2013-06-30 18:00:00
11:00 AM,68.9,63.0,81,29.97,-9999.0,ENE,4.6,-,N/A,,Unknown,70,2013-06-30 18:00:00
12:00 PM,72.7,66.4,81,29.96,-9999.0,North,1.2,-,N/A,,Unknown,360,2013-06-30 19:00:00
1:00 PM,71.1,64.8,80,29.95,-9999.0,WNW,4.6,-,N/A,,Unknown,290,2013-06-30 20:00:00
2:00 PM,70.7,64.4,80,29.93,-9999.0,WNW,5.8,-,N/A,,Unknown,290,2013-06-30 21:00:00
3:00 PM,70.5,64.6,81,29.92,-9999.0,WNW,8.1,-,N/A,,Unknown,290,2013-06-30 22:00:00
4:00 PM,71.8,64.9,79,29.90,-9999.0,West,5.8,-,N/A,,Unknown,280,2013-06-30 23:00:00
5:00 PM,72,64,70,29.88,,West,4.6,,,,,260,2013-07-01 00:00:00
5:00 PM,72.0,64.2,77,29.88,-9999.0,West,4.6,-,N/A,,Unknown,260,2013-07-01 00:00:00
6:00 PM,72.3,63.7,74,29.86,-9999.0,West,4.6,-,N/A,,Unknown,270,2013-07-01 01:00:00
7:00 PM,73.4,65.5,76,29.85,-9999.0,WSW,5.8,-,N/A,,Unknown,250,2013-07-01 02:00:00
8:00 PM,73.4,64.6,74,29.84,-9999.0,West,5.8,-,N/A,,Unknown,270,2013-07-01 03:00:00
9:00 PM,72.5,63.3,73,29.84,-9999.0,WSW,6.9,-,N/A,,Unknown,240,2013-07-01 04:00:00
10:00 PM,71.8,63.0,74,29.84,-9999.0,WSW,6.9,-,N/A,,Unknown,240,2013-07-01 05:00:00
11:00 PM,71,63,69,29.85,,West,4.6,,,,,260,2013-07-01 06:00:00
11:00 PM,71.4,63.0,75,29.85,-9999.0,West,4.6,-,N/A,,Unknown,260,2013-07-01 06:00:00